Wetterdaten: Samstag, 14.03.2015
Datum Zeit Temp. A. Feuchte A. Luftdruck Regen Wind Richtung Richtung Sonnenschein ET UV Solar Taupunkt Windchill Windben Empfang
14.03.2015 00:00 2,2 C 71 % 1021,8 hPa 0,0 l/m 0,0 km/h (0 Bft) S 181 0 min 0,000 mm 0,0 UV-I 0 W/m -2,5 C 2,2 C 0,0 km/h (0 Bft) 0,00 %
14.03.2015 00:15 2,2 C 72 % 1021,6 hPa 0,0 l/m 0,0 km/h (0 Bft) S-SW 210 0 min 0,000 mm 0,0 UV-I 0 W/m -2,3 C 2,2 C 0,0 km/h (0 Bft) 0,00 %
14.03.2015 00:30 2,1 C 73 % 1021,7 hPa 0,0 l/m 0,0 km/h (0 Bft) S 173 0 min 0,000 mm 0,0 UV-I 0 W/m -2,2 C 2,1 C 0,0 km/h (0 Bft) 0,00 %
14.03.2015 00:45 2,1 C 73 % 1021,5 hPa 0,0 l/m 0,0 km/h (0 Bft) S 173 0 min 0,000 mm 0,0 UV-I 0 W/m -2,2 C 2,1 C 0,0 km/h (0 Bft) 0,00 %
14.03.2015 01:00 2,1 C 73 % 1021,5 hPa 0,0 l/m 0,0 km/h (0 Bft) S 180 0 min 0,000 mm 0,0 UV-I 0 W/m -2,2 C 2,1 C 0,0 km/h (0 Bft) 0,00 %
14.03.2015 01:15 2,1 C 74 % 1021,6 hPa 0,0 l/m 0,0 km/h (0 Bft) S-SW 207 0 min 0,000 mm 0,0 UV-I 0 W/m -2,0 C 2,1 C 0,0 km/h (0 Bft) 0,00 %
14.03.2015 01:30 2,0 C 73 % 1021,4 hPa 0,0 l/m 0,0 km/h (0 Bft) S-SW 196 0 min 0,000 mm 0,0 UV-I 0 W/m -2,3 C 2,0 C 0,0 km/h (0 Bft) 0,00 %
14.03.2015 01:45 1,9 C 73 % 1021,7 hPa 0,0 l/m 0,0 km/h (0 Bft) S-SW 192 0 min 0,000 mm 0,0 UV-I 0 W/m -2,4 C 1,9 C 0,0 km/h (0 Bft) 0,00 %
14.03.2015 02:00 2,0 C 73 % 1021,4 hPa 0,0 l/m 0,0 km/h (0 Bft) S 186 0 min 0,000 mm 0,0 UV-I 0 W/m -2,3 C 2,0 C 0,0 km/h (0 Bft) 0,00 %
14.03.2015 02:15 2,0 C 73 % 1021,5 hPa 0,0 l/m 0,0 km/h (0 Bft) S 181 0 min 0,000 mm 0,0 UV-I 0 W/m -2,3 C 2,0 C 0,0 km/h (0 Bft) 0,00 %
14.03.2015 02:30 2,0 C 74 % 1021,5 hPa 0,0 l/m 0,0 km/h (0 Bft) S 176 0 min 0,000 mm 0,0 UV-I 0 W/m -2,1 C 2,0 C 0,0 km/h (0 Bft) 0,00 %
14.03.2015 02:45 1,9 C 73 % 1021,5 hPa 0,0 l/m 0,0 km/h (0 Bft) S 176 0 min 0,000 mm 0,0 UV-I 0 W/m -2,4 C 1,9 C 0,0 km/h (0 Bft) 0,00 %
14.03.2015 03:00 1,9 C 74 % 1021,5 hPa 0,0 l/m 0,0 km/h (0 Bft) S 184 0 min 0,000 mm 0,0 UV-I 0 W/m -2,2 C 1,9 C 0,0 km/h (0 Bft) 0,00 %
14.03.2015 03:15 1,8 C 75 % 1021,5 hPa 0,0 l/m 0,0 km/h (0 Bft) S-SW 201 0 min 0,000 mm 0,0 UV-I 0 W/m -2,1 C 1,8 C 0,0 km/h (0 Bft) 0,00 %
14.03.2015 03:30 1,8 C 75 % 1021,5 hPa 0,0 l/m 0,0 km/h (0 Bft) S-SW 200 0 min 0,000 mm 0,0 UV-I 0 W/m -2,1 C 1,8 C 0,0 km/h (0 Bft) 0,00 %
14.03.2015 03:45 1,8 C 73 % 1021,4 hPa 0,0 l/m 0,0 km/h (0 Bft) S-SW 192 0 min 0,000 mm 0,0 UV-I 0 W/m -2,5 C 1,8 C 0,0 km/h (0 Bft) 0,00 %
14.03.2015 04:00 1,9 C 72 % 1021,5 hPa 0,0 l/m 0,0 km/h (0 Bft) S 191 0 min 0,000 mm 0,0 UV-I 0 W/m -2,6 C 1,9 C 0,0 km/h (0 Bft) 0,00 %
14.03.2015 04:15 1,8 C 74 % 1021,7 hPa 0,0 l/m 0,0 km/h (0 Bft) S 189 0 min 0,000 mm 0,0 UV-I 0 W/m -2,3 C 1,8 C 0,0 km/h (0 Bft) 0,00 %
14.03.2015 04:30 1,8 C 73 % 1021,6 hPa 0,0 l/m 0,0 km/h (0 Bft) S-SW 202 0 min 0,000 mm 0,0 UV-I 0 W/m -2,5 C 1,8 C 0,0 km/h (0 Bft) 0,00 %
14.03.2015 04:45 1,7 C 75 % 1021,6 hPa 0,0 l/m 0,0 km/h (0 Bft) S-SW 203 0 min 0,000 mm 0,0 UV-I 0 W/m -2,2 C 1,7 C 0,0 km/h (0 Bft) 0,00 %
14.03.2015 05:00 1,6 C 76 % 1021,6 hPa 0,0 l/m 0,0 km/h (0 Bft) S-SW 196 0 min 0,000 mm 0,0 UV-I 0 W/m -2,2 C 1,6 C 0,0 km/h (0 Bft) 0,00 %
14.03.2015 05:15 1,5 C 77 % 1021,7 hPa 0,0 l/m 0,0 km/h (0 Bft) S-SW 199 0 min 0,000 mm 0,0 UV-I 0 W/m -2,1 C 1,5 C 0,0 km/h (0 Bft) 0,00 %
14.03.2015 05:30 1,5 C 76 % 1021,7 hPa 0,0 l/m 0,0 km/h (0 Bft) S-SW 195 0 min 0,000 mm 0,0 UV-I 0 W/m -2,3 C 1,5 C 0,0 km/h (0 Bft) 0,00 %
14.03.2015 05:45 1,4 C 79 % 1021,7 hPa 0,0 l/m 0,0 km/h (0 Bft) S-SW 211 0 min 0,000 mm 0,0 UV-I 0 W/m -1,8 C 1,4 C 0,0 km/h (0 Bft) 0,00 %
14.03.2015 06:00 1,3 C 79 % 1022,0 hPa 0,0 l/m 0,0 km/h (0 Bft) SW 214 0 min 0,000 mm 0,0 UV-I 0 W/m -1,9 C 1,3 C 0,0 km/h (0 Bft) 0,00 %
14.03.2015 06:15 1,2 C 79 % 1022,1 hPa 0,0 l/m 0,0 km/h (0 Bft) S-SW 201 0 min 0,000 mm 0,0 UV-I 0 W/m -2,0 C 1,2 C 0,0 km/h (0 Bft) 0,00 %
14.03.2015 06:30 1,2 C 79 % 1022,2 hPa 0,0 l/m 0,0 km/h (0 Bft) S-SW 201 0 min 0,000 mm 0,0 UV-I 0 W/m -2,0 C 1,2 C 0,0 km/h (0 Bft) 0,00 %
14.03.2015 06:45 1,2 C 79 % 1022,4 hPa 0,0 l/m 0,0 km/h (0 Bft) S-SW 205 0 min 0,000 mm 0,0 UV-I 0 W/m -2,0 C 1,2 C 0,0 km/h (0 Bft) 0,00 %
14.03.2015 07:00 1,3 C 79 % 1022,3 hPa 0,0 l/m 0,0 km/h (0 Bft) S-SW 208 0 min 0,000 mm 0,0 UV-I 3 W/m -1,9 C 1,3 C 0,0 km/h (0 Bft) 0,00 %
14.03.2015 07:15 1,3 C 79 % 1022,4 hPa 0,0 l/m 0,0 km/h (0 Bft) S-SW 209 0 min 0,000 mm 0,0 UV-I 7 W/m -1,9 C 1,3 C 0,0 km/h (0 Bft) 0,00 %
14.03.2015 07:30 1,4 C 78 % 1022,6 hPa 0,0 l/m 0,0 km/h (0 Bft) S-SW 203 0 min 0,000 mm 0,0 UV-I 17 W/m -2,0 C 1,4 C 0,0 km/h (0 Bft) 0,00 %
14.03.2015 07:45 1,5 C 76 % 1022,5 hPa 0,0 l/m 0,0 km/h (0 Bft) S-SW 212 0 min 0,000 mm 0,0 UV-I 21 W/m -2,3 C 1,5 C 0,0 km/h (0 Bft) 0,00 %
14.03.2015 08:00 1,6 C 75 % 1022,2 hPa 0,0 l/m 0,0 km/h (0 Bft) S-SW 203 0 min 0,000 mm 0,0 UV-I 27 W/m -2,3 C 1,6 C 0,0 km/h (0 Bft) 0,00 %
14.03.2015 08:15 1,8 C 75 % 1022,5 hPa 0,0 l/m 0,0 km/h (0 Bft) S-SW 205 0 min 0,000 mm 0,0 UV-I 35 W/m -2,1 C 1,8 C 0,0 km/h (0 Bft) 0,00 %
14.03.2015 08:30 1,9 C 74 % 1022,5 hPa 0,0 l/m 0,0 km/h (0 Bft) S-SW 203 0 min 0,000 mm 1,0 UV-I 37 W/m -2,2 C 1,9 C 0,0 km/h (0 Bft) 0,00 %
14.03.2015 08:45 2,2 C 73 % 1022,1 hPa 0,0 l/m 0,0 km/h (0 Bft) S-SW 203 0 min 0,000 mm 1,0 UV-I 56 W/m -2,1 C 2,2 C 0,0 km/h (0 Bft) 0,00 %
14.03.2015 09:00 2,5 C 76 % 1022,2 hPa 0,0 l/m 0,0 km/h (0 Bft) S-SW 205 0 min 0,000 mm 1,0 UV-I 72 W/m -1,3 C 2,5 C 0,0 km/h (0 Bft) 0,00 %
14.03.2015 09:15 2,7 C 75 % 1022,0 hPa 0,0 l/m 0,0 km/h (0 Bft) SW 227 0 min 0,000 mm 1,0 UV-I 84 W/m -1,3 C 2,7 C 0,0 km/h (0 Bft) 0,00 %
14.03.2015 09:30 3,0 C 74 % 1022,0 hPa 0,0 l/m 0,0 km/h (0 Bft) S-SW 197 0 min 0,000 mm 1,0 UV-I 93 W/m -1,2 C 3,0 C 0,0 km/h (0 Bft) 0,00 %
14.03.2015 09:45 3,1 C 74 % 1021,7 hPa 0,0 l/m 0,0 km/h (0 Bft) S-SW 200 0 min 0,000 mm 1,0 UV-I 97 W/m -1,1 C 3,1 C 0,0 km/h (0 Bft) 0,00 %
14.03.2015 10:00 3,3 C 73 % 1021,8 hPa 0,0 l/m 0,0 km/h (0 Bft) S-SW 213 0 min 0,000 mm 1,0 UV-I 104 W/m -1,1 C 3,3 C 0,0 km/h (0 Bft) 0,00 %
14.03.2015 10:15 3,6 C 71 % 1021,6 hPa 0,0 l/m 0,0 km/h (0 Bft) S 185 0 min 0,000 mm 1,0 UV-I 102 W/m -1,2 C 3,6 C 0,0 km/h (0 Bft) 0,00 %
14.03.2015 10:30 4,2 C 68 % 1021,4 hPa 0,0 l/m 0,0 km/h (0 Bft) S-SW 209 0 min 0,000 mm 1,0 UV-I 134 W/m -1,2 C 4,2 C 0,0 km/h (0 Bft) 0,00 %
14.03.2015 10:45 4,4 C 67 % 1021,2 hPa 0,0 l/m 0,0 km/h (0 Bft) S-SW 213 0 min 0,000 mm 2,0 UV-I 152 W/m -1,2 C 4,4 C 0,0 km/h (0 Bft) 0,00 %
14.03.2015 11:00 4,7 C 66 % 1021,0 hPa 0,0 l/m 0,0 km/h (0 Bft) S-SW 205 0 min 0,000 mm 2,0 UV-I 166 W/m -1,1 C 4,7 C 0,0 km/h (0 Bft) 0,00 %
14.03.2015 11:15 4,8 C 65 % 1021,0 hPa 0,0 l/m 0,0 km/h (0 Bft) SW 236 0 min 0,000 mm 2,0 UV-I 182 W/m -1,2 C 4,8 C 0,0 km/h (0 Bft) 0,00 %
14.03.2015 11:30 4,8 C 66 % 1020,9 hPa 0,0 l/m 0,0 km/h (0 Bft) S 173 0 min 0,000 mm 2,0 UV-I 215 W/m -1,0 C 4,8 C 0,0 km/h (0 Bft) 0,00 %
14.03.2015 11:45 5,5 C 62 % 1020,6 hPa 0,0 l/m 0,0 km/h (0 Bft) S-SW 197 0 min 0,000 mm 2,0 UV-I 238 W/m -1,2 C 5,5 C 0,0 km/h (0 Bft) 0,00 %
14.03.2015 12:00 5,5 C 61 % 1020,6 hPa 0,0 l/m 0,0 km/h (0 Bft) SW 225 0 min 0,000 mm 2,0 UV-I 243 W/m -1,4 C 5,5 C 0,0 km/h (0 Bft) 0,00 %
14.03.2015 12:15 6,0 C 60 % 1020,3 hPa 0,0 l/m 0,0 km/h (0 Bft) SW 230 0 min 0,000 mm 3,0 UV-I 239 W/m -1,2 C 6,0 C 0,0 km/h (0 Bft) 0,00 %
14.03.2015 12:30 6,2 C 58 % 1020,1 hPa 0,0 l/m 0,0 km/h (0 Bft) S 177 0 min 0,000 mm 3,0 UV-I 339 W/m -1,4 C 6,2 C 0,0 km/h (0 Bft) 0,00 %
14.03.2015 12:45 6,0 C 60 % 1020,0 hPa 0,0 l/m 0,0 km/h (0 Bft) W-SW 256 0 min 0,000 mm 3,0 UV-I 318 W/m -1,2 C 6,0 C 0,0 km/h (0 Bft) 0,00 %
14.03.2015 13:00 5,7 C 60 % 1020,0 hPa 0,0 l/m 0,0 km/h (0 Bft) N 355 0 min 0,000 mm 2,0 UV-I 266 W/m -1,4 C 5,7 C 0,0 km/h (0 Bft) 0,00 %
14.03.2015 13:15 5,9 C 58 % 1019,9 hPa 0,0 l/m 9,4 km/h (2 Bft) O-SO 103 0 min 0,000 mm 2,0 UV-I 256 W/m -1,7 C 3,5 C 11,9 km/h (2 Bft) 0,00 %
14.03.2015 13:30 5,7 C 59 % 1019,9 hPa 0,0 l/m 1,8 km/h (1 Bft) O-NO 63 0 min 0,000 mm 2,0 UV-I 263 W/m -1,7 C 5,7 C 4,0 km/h (1 Bft) 0,00 %
14.03.2015 13:45 5,6 C 59 % 1020,1 hPa 0,0 l/m 0,4 km/h (0 Bft) NO 45 0 min 0,000 mm 2,0 UV-I 234 W/m -1,8 C 5,6 C 4,0 km/h (1 Bft) 0,00 %
14.03.2015 14:00 5,7 C 59 % 1020,0 hPa 0,0 l/m 1,8 km/h (1 Bft) O-SO 116 0 min 0,000 mm 2,0 UV-I 237 W/m -1,7 C 5,7 C 4,0 km/h (1 Bft) 0,00 %
14.03.2015 14:15 5,8 C 59 % 1020,1 hPa 0,0 l/m 0,4 km/h (0 Bft) NO 34 0 min 0,000 mm 2,0 UV-I 254 W/m -1,6 C 5,8 C 4,0 km/h (1 Bft) 0,00 %
14.03.2015 14:30 5,7 C 59 % 1020,3 hPa 0,0 l/m 4,7 km/h (1 Bft) N 11 0 min 0,000 mm 2,0 UV-I 236 W/m -1,7 C 5,7 C 7,9 km/h (2 Bft) 0,00 %
14.03.2015 14:45 5,6 C 60 % 1020,3 hPa 0,0 l/m 1,4 km/h (1 Bft) NO 50 0 min 0,000 mm 2,0 UV-I 213 W/m -1,5 C 5,6 C 4,0 km/h (1 Bft) 0,00 %
14.03.2015 15:00 5,5 C 61 % 1020,5 hPa 0,0 l/m 1,8 km/h (1 Bft) NO 53 0 min 0,000 mm 2,0 UV-I 229 W/m -1,4 C 5,5 C 4,0 km/h (1 Bft) 0,00 %
14.03.2015 15:15 5,3 C 60 % 1020,3 hPa 0,0 l/m 6,8 km/h (2 Bft) O 97 0 min 0,000 mm 2,0 UV-I 187 W/m -1,8 C 5,0 C 11,9 km/h (2 Bft) 0,00 %
14.03.2015 15:30 5,5 C 61 % 1020,9 hPa 0,0 l/m 2,2 km/h (1 Bft) O-NO 70 0 min 0,000 mm 1,0 UV-I 186 W/m -1,4 C 5,5 C 4,0 km/h (1 Bft) 0,00 %
14.03.2015 15:45 5,3 C 62 % 1020,9 hPa 0,0 l/m 1,8 km/h (1 Bft) W-NW 289 0 min 0,000 mm 1,0 UV-I 129 W/m -1,4 C 5,3 C 4,0 km/h (1 Bft) 0,00 %
14.03.2015 16:00 5,4 C 60 % 1020,6 hPa 0,0 l/m 6,5 km/h (2 Bft) SO 140 15 min 0,000 mm 1,0 UV-I 194 W/m -1,7 C 5,3 C 7,9 km/h (2 Bft) 0,00 %
14.03.2015 16:15 5,4 C 61 % 1021,5 hPa 0,0 l/m 0,4 km/h (0 Bft) O-NO 69 0 min 0,000 mm 1,0 UV-I 143 W/m -1,5 C 5,4 C 4,0 km/h (1 Bft) 0,00 %
14.03.2015 16:30 5,1 C 63 % 1021,8 hPa 0,0 l/m 0,4 km/h (0 Bft) N-NW 348 0 min 0,000 mm 1,0 UV-I 111 W/m -1,4 C 5,1 C 4,0 km/h (1 Bft) 0,00 %
14.03.2015 16:45 4,9 C 63 % 1021,9 hPa 0,0 l/m 1,4 km/h (1 Bft) NO 36 0 min 0,000 mm 1,0 UV-I 79 W/m -1,5 C 4,9 C 4,0 km/h (1 Bft) 0,00 %
14.03.2015 17:00 4,8 C 62 % 1022,2 hPa 0,0 l/m 0,7 km/h (0 Bft) NO 48 0 min 0,000 mm 0,0 UV-I 54 W/m -1,9 C 4,8 C 4,0 km/h (1 Bft) 0,00 %
14.03.2015 17:15 4,7 C 64 % 1022,4 hPa 0,0 l/m 1,4 km/h (1 Bft) N-NO 27 0 min 0,000 mm 0,0 UV-I 31 W/m -1,5 C 4,7 C 4,0 km/h (1 Bft) 0,00 %
14.03.2015 17:30 4,6 C 65 % 1022,8 hPa 0,0 l/m 4,3 km/h (1 Bft) O-SO 103 0 min 0,000 mm 0,0 UV-I 16 W/m -1,4 C 4,6 C 7,9 km/h (2 Bft) 0,00 %
14.03.2015 17:45 4,5 C 66 % 1022,9 hPa 0,0 l/m 0,4 km/h (0 Bft) S 175 0 min 0,000 mm 0,0 UV-I 1 W/m -1,3 C 4,5 C 4,0 km/h (1 Bft) 0,00 %
14.03.2015 18:00 4,3 C 68 % 1023,1 hPa 0,0 l/m 0,4 km/h (0 Bft) S 178 0 min 0,000 mm 0,0 UV-I 0 W/m -1,1 C 4,3 C 4,0 km/h (1 Bft) 0,00 %
14.03.2015 18:15 4,2 C 69 % 1023,3 hPa 0,0 l/m 0,0 km/h (0 Bft) S 191 0 min 0,000 mm 0,0 UV-I 0 W/m -1,0 C 4,2 C 0,0 km/h (0 Bft) 0,00 %
14.03.2015 18:30 4,1 C 68 % 1023,5 hPa 0,0 l/m 2,2 km/h (1 Bft) S 175 0 min 0,000 mm 0,0 UV-I 0 W/m -1,3 C 4,1 C 4,0 km/h (1 Bft) 0,00 %
14.03.2015 18:45 4,0 C 68 % 1023,8 hPa 0,0 l/m 0,0 km/h (0 Bft) NW 304 0 min 0,000 mm 0,0 UV-I 0 W/m -1,4 C 4,0 C 0,0 km/h (0 Bft) 0,00 %
14.03.2015 19:00 3,8 C 70 % 1023,9 hPa 0,0 l/m 1,8 km/h (1 Bft) O 82 0 min 0,000 mm 0,0 UV-I 0 W/m -1,2 C 3,8 C 4,0 km/h (1 Bft) 0,00 %
14.03.2015 19:15 3,7 C 70 % 1023,8 hPa 0,0 l/m 0,0 km/h (0 Bft) N 357 0 min 0,000 mm 0,0 UV-I 0 W/m -1,3 C 3,7 C 0,0 km/h (0 Bft) 0,00 %
14.03.2015 19:30 3,6 C 69 % 1023,8 hPa 0,0 l/m 0,0 km/h (0 Bft) NO 50 0 min 0,000 mm 0,0 UV-I 0 W/m -1,5 C 3,6 C 0,0 km/h (0 Bft) 0,00 %
14.03.2015 19:45 3,5 C 70 % 1024,2 hPa 0,0 l/m 0,0 km/h (0 Bft) O-SO 110 0 min 0,000 mm 0,0 UV-I 0 W/m -1,4 C 3,5 C 0,0 km/h (0 Bft) 0,00 %
14.03.2015 20:00 3,3 C 72 % 1024,1 hPa 0,0 l/m 0,7 km/h (0 Bft) O-SO 108 0 min 0,000 mm 0,0 UV-I 0 W/m -1,3 C 3,3 C 4,0 km/h (1 Bft) 0,00 %
14.03.2015 20:15 3,3 C 73 % 1024,2 hPa 0,0 l/m 0,0 km/h (0 Bft) S 173 0 min 0,000 mm 0,0 UV-I 0 W/m -1,1 C 3,3 C 0,0 km/h (0 Bft) 0,00 %
14.03.2015 20:30 3,2 C 73 % 1024,4 hPa 0,0 l/m 0,0 km/h (0 Bft) NO 45 0 min 0,000 mm 0,0 UV-I 0 W/m -1,2 C 3,2 C 0,0 km/h (0 Bft) 0,00 %
14.03.2015 20:45 3,2 C 74 % 1024,2 hPa 0,0 l/m 0,0 km/h (0 Bft) S 183 0 min 0,000 mm 0,0 UV-I 0 W/m -1,0 C 3,2 C 0,0 km/h (0 Bft) 0,00 %
14.03.2015 21:00 3,1 C 74 % 1024,0 hPa 0,0 l/m 0,0 km/h (0 Bft) SO 128 0 min 0,000 mm 0,0 UV-I 0 W/m -1,1 C 3,1 C 0,0 km/h (0 Bft) 0,00 %
14.03.2015 21:15 3,1 C 75 % 1024,2 hPa 0,0 l/m 4,3 km/h (1 Bft) O-SO 110 0 min 0,000 mm 0,0 UV-I 0 W/m -0,9 C 3,1 C 7,9 km/h (2 Bft) 0,00 %
14.03.2015 21:30 2,9 C 76 % 1024,2 hPa 0,0 l/m 0,0 km/h (0 Bft) O-NO 73 0 min 0,000 mm 0,0 UV-I 0 W/m -0,9 C 2,9 C 0,0 km/h (0 Bft) 0,00 %
14.03.2015 21:45 2,8 C 77 % 1023,9 hPa 0,0 l/m 1,4 km/h (1 Bft) NO 43 0 min 0,000 mm 0,0 UV-I 0 W/m -0,8 C 2,8 C 4,0 km/h (1 Bft) 0,00 %
14.03.2015 22:00 2,8 C 77 % 1024,0 hPa 0,0 l/m 0,7 km/h (0 Bft) S 172 0 min 0,000 mm 0,0 UV-I 0 W/m -0,8 C 2,8 C 4,0 km/h (1 Bft) 0,00 %
14.03.2015 22:15 2,7 C 78 % 1024,0 hPa 0,0 l/m 0,0 km/h (0 Bft) O 90 0 min 0,000 mm 0,0 UV-I 0 W/m -0,7 C 2,7 C 0,0 km/h (0 Bft) 0,00 %
14.03.2015 22:30 2,6 C 78 % 1024,0 hPa 0,0 l/m 0,0 km/h (0 Bft) SW 225 0 min 0,000 mm 0,0 UV-I 0 W/m -0,8 C 2,6 C 0,0 km/h (0 Bft) 0,00 %
14.03.2015 22:45 2,5 C 78 % 1024,0 hPa 0,0 l/m 0,0 km/h (0 Bft) W-SW 256 0 min 0,000 mm 0,0 UV-I 0 W/m -0,9 C 2,5 C 0,0 km/h (0 Bft) 0,00 %
14.03.2015 23:00 2,4 C 76 % 1024,1 hPa 0,0 l/m 0,4 km/h (0 Bft) N-NO 28 0 min 0,000 mm 0,0 UV-I 0 W/m -1,4 C 2,4 C 4,0 km/h (1 Bft) 0,00 %
14.03.2015 23:15 2,3 C 75 % 1024,0 hPa 0,0 l/m 0,0 km/h (0 Bft) O 101 0 min 0,000 mm 0,0 UV-I 0 W/m -1,7 C 2,3 C 0,0 km/h (0 Bft) 0,00 %
14.03.2015 23:30 2,3 C 74 % 1024,1 hPa 0,0 l/m 0,0 km/h (0 Bft) NO 51 0 min 0,000 mm 0,0 UV-I 0 W/m -1,8 C 2,3 C 0,0 km/h (0 Bft) 0,00 %
14.03.2015 23:45 2,3 C 74 % 1023,9 hPa 0,0 l/m 0,7 km/h (0 Bft) S 180 0 min 0,000 mm 0,0 UV-I 0 W/m -1,8 C 2,3 C 4,0 km/h (1 Bft) 0,00 %
_ Min-Zeit 06:15 12:30 13:15 - 00:00 - - - - - - 04:00 06:15 00:00 00:00
Minimum _ 1,2 C 58 % 1019,9 hPa - 0,0 km/h (0 Bft) - - - - - - -2,6 C 1,2 C 0,0 km/h (0 Bft) 0,00 %
_ Max-Zeit 12:30 05:45 20:30 00:00 13:15 - - 16:00 00:00 12:15 12:30 22:15 12:30 13:15 00:00
Maximum _ 6,2 C 79 % 1024,4 hPa 0,0 l/m 9,4 km/h
O-SO (2 Bft)
- - 15 min 0,000 mm 3,0 UV-I 339 W/m -0,7 C 6,2 C 11,9 km/h
O-SO (2 Bft)
0,00 %
Durchschnitt _ 3,3 C 70 % 1022,1 hPa #0,0 l/m 0,6 km/h (0 Bft) NO - #15 min. #0,000 mm 1,6 UV-I 143 W/m -1,6 C 3,3 C 1,5 km/h (1 Bft) 0,00 %